SYNCOM 2 (A 26)

Satellite information

Favourite Embed

Satellite Type and Status

PAYLOADIN ORBIT

Key statistics

Satellite SYNCOM 2 (A 26) at a glance.

Uptime

22690

Days in orbit

Revolutions

≈ 1.0

Per day

Orbit

OTHER

Other

Inclination

30.6

Latest

Satellite identification and parameters

Extended collection of information and parameters for SYNCOM 2 (A 26).

Object identification

Identified? True

Debris? False

Object name: SYNCOM 2 (A 26)

International designator: 1963-031A

Object number (NORAD): 634

Object ID (CCSDS): 634

Country: UNITED STATES OF AMERICA (US)

Current information (Y/N): Y

RCS size: LARGE

Orbital parameters

Period: 1436.185 minutes

Inclination: 30.5908 deg

SMA: 42166.46 km

Apoapsis: 35825.87 km

Periapsis: 35750.781 km

RAAN: 304.4408 deg

Eccentricy: 0.00089039

Argument of periapsis: 204.5755 deg

Mean anomaly: 161.0947 deg

Mean motion: 1.0026562 rev/day

Mean motion (dot): -0.0000016 rev/day2

B* drag term: 0.0 1/REarth

Two-line elements (TLE)

Creation date: Sept. 8, 2025, 3:16 a.m.

Reference frame: TEME

Reference center: EARTH

Epoch: Sept. 7, 2025, 3:50 p.m. UTC

TLE line 0: 0 SYNCOM 2 (A 26)

TLE line 1: 1 00634U 63031A 25250.66040226 -.00000160 00000-0 00000-0 0 9994

TLE line 2: 2 00634 30.5908 304.4408 0008904 204.5755 161.0947 1.00265620227531

Live tracking on map

Real-time ground track for satellite SYNCOM 2 (A 26).

In-orbit conjunctions

A list of the most updated potential collisions computed for object SYNCOM 2 (A 26).

Target Orbit TCA Probability of collision Miss distance Type
RADUGA 5 OTHER 2025-01-27 07:12:38 TBA 2451.0 (m) PAYLOAD
FENGYUN 2D DEB OTHER 2024-11-29 09:47:29 TBA 177.0 (m) DEBRIS
SATCOM 3 DEB OTHER 2024-09-10 17:03:30 TBA 4829.0 (m) DEBRIS
EKRAN 20 OTHER 2024-06-09 09:33:44 TBA 3652.0 (m) PAYLOAD

Associated space launch

Syncom 2 was the first geosynchronous satellite. Although the period was 24 hours and the spacecraft remained at a nearly constant longitude, the orbit was inclined at 33 degrees so it was not truly geostationary but moved in an elongated figure eight pattern 33 degrees north and south of the equator.

SYNCOM 2 (A 26) was lifted into orbit during the mission ‘Thor Delta B | Syncom 2’, on board a Thor Delta B space rocket.

The launch took place on July 26, 1963, 2:33 p.m. from Space Launch Complex 17A.

For more information about the launch, click the button.

Launch to space Thor Delta B | Syncom 2
Thor Delta B | Syncom 2

Agency: N/A

Status: Launch Successful

Launch date: July 26, 1963, 2:33 p.m. UTC

Rocket: Thor Delta B

Launch pad: Space Launch Complex 17A

Location: Cape Canaveral SFS, FL, USA

...

Latest news about this satellite

There are no fresh news available about this satellite. Check back as we update our databases every day.


Newsletter sign-up

Weekly statistics, charts and insights to help you stay on top of the space industry.